Satellite: NOAA-12 Catalog number: 21263 Epoch time: 11362.99114427 Element set: 0268 Inclination: 098.7411 deg RA of node: 020.3586 deg Eccentricity: 0.0013705 Arg of perigee: 342.3844 deg Mean anomaly: 017.6860 deg Mean motion: 14.25468329 rev/day Decay rate: 9.4e-07 rev/day^2 Epoch rev: 07216 Checksum: 293
Satellite: MET-3/5 Catalog number: 21655 Epoch time: 11362.68900538 Element set: 0298 Inclination: 082.5591 deg RA of node: 273.3432 deg Eccentricity: 0.0014268 Arg of perigee: 034.7684 deg Mean anomaly: 325.4342 deg Mean motion: 13.17033667 rev/day Decay rate: 5.1e-07 rev/day^2 Epoch rev: 97932 Checksum: 312
Satellite: MET-2/21 Catalog number: 22782 Epoch time: 11362.56030377 Element set: 0295 Inclination: 082.5456 deg RA of node: 168.6723 deg Eccentricity: 0.0021101 Arg of perigee: 274.6500 deg Mean anomaly: 085.2261 deg Mean motion: 13.83671816 rev/day Decay rate: -2.0e-07 rev/day^2 Epoch rev: 92543 Checksum: 283
Satellite: OKEAN-4 Catalog number: 23317 Epoch time: 11363.87292754 Element set: 762 Inclination: 082.5393 deg RA of node: 190.3720 deg Eccentricity: 0.0020975 Arg of perigee: 190.0465 deg Mean anomaly: 170.0335 deg Mean motion: 14.83488951 rev/day Decay rate: 9.49e-06 rev/day^2 Epoch rev: 92955 Checksum: 325
Satellite: NOAA-14 Catalog number: 23455 Epoch time: 11362.93335728 Element set: 0749 Inclination: 098.8392 deg RA of node: 083.5178 deg Eccentricity: 0.0010209 Arg of perigee: 085.9823 deg Mean anomaly: 274.2513 deg Mean motion: 14.13866456 rev/day Decay rate: 7.4e-07 rev/day^2 Epoch rev: 87659 Checksum: 340
Satellite: NOAA-15 Catalog number: 25338 Epoch time: 11362.73705186 Element set: 0080 Inclination: 098.6741 deg RA of node: 346.4162 deg Eccentricity: 0.0009793 Arg of perigee: 245.8165 deg Mean anomaly: 114.1989 deg Mean motion: 14.25011214 rev/day Decay rate: 2.3e-07 rev/day^2 Epoch rev: 70843 Checksum: 297
Satellite: RESURS Catalog number: 25394 Epoch time: 11363.90209008 Element set: 977 Inclination: 098.3075 deg RA of node: 356.2250 deg Eccentricity: 0.0002181 Arg of perigee: 037.9287 deg Mean anomaly: 322.2047 deg Mean motion: 14.24266301 rev/day Decay rate: 4.9e-07 rev/day^2 Epoch rev: 70016 Checksum: 277
Satellite: FENGYUN1 Catalog number: 25730 Epoch time: 11362.90503715 Element set: 502 Inclination: 098.8324 deg RA of node: 320.0326 deg Eccentricity: 0.0021479 Arg of perigee: 131.0537 deg Mean anomaly: 229.2486 deg Mean motion: 14.09128302 rev/day Decay rate: 3.90e-06 rev/day^2 Epoch rev: 65048 Checksum: 268
Satellite: OKEAN-0 Catalog number: 25860 Epoch time: 11362.93682957 Element set: 0519 Inclination: 097.9116 deg RA of node: 324.3466 deg Eccentricity: 0.0001909 Arg of perigee: 070.8543 deg Mean anomaly: 289.2869 deg Mean motion: 14.74032327 rev/day Decay rate: 5.91e-06 rev/day^2 Epoch rev: 66934 Checksum: 335
Satellite: NOAA-16 Catalog number: 26536 Epoch time: 11362.71233835 Element set: 0563 Inclination: 099.1178 deg RA of node: 036.9974 deg Eccentricity: 0.0010320 Arg of perigee: 202.9528 deg Mean anomaly: 157.1160 deg Mean motion: 14.12691289 rev/day Decay rate: 2.54e-06 rev/day^2 Epoch rev: 58082 Checksum: 303
Satellite: NOAA-17 Catalog number: 27453 Epoch time: 11362.90646555 Element set: 0545 Inclination: 098.3558 deg RA of node: 033.4412 deg Eccentricity: 0.0010916 Arg of perigee: 301.5110 deg Mean anomaly: 058.4995 deg Mean motion: 14.24376055 rev/day Decay rate: 3.30e-06 rev/day^2 Epoch rev: 49437 Checksum: 299
Satellite: NOAA-18 Catalog number: 28654 Epoch time: 11362.96206280 Element set: 0020 Inclination: 099.0238 deg RA of node: 314.8439 deg Eccentricity: 0.0013556 Arg of perigee: 277.6555 deg Mean anomaly: 082.3081 deg Mean motion: 14.11580877 rev/day Decay rate: -6.1e-07 rev/day^2 Epoch rev: 34040 Checksum: 296
Satellite: NOAA-19 Catalog number: 33591 Epoch time: 11362.93166565 Element set: 0209 Inclination: 098.8490 deg RA of node: 299.9987 deg Eccentricity: 0.0014429 Arg of perigee: 142.6150 deg Mean anomaly: 217.6026 deg Mean motion: 14.11270639 rev/day Decay rate: -1.3e-07 rev/day^2 Epoch rev: 14885 Checksum: 326
/EX SB KEPS @ AMSAT $ORB11363.M Orbital Elements 11363.MISC
HR AMSAT ORBITAL ELEMENTS FOR MANNED AND MISCELLANEOUS SATELLITES FROM WA5QGD FORT WORTH,TX December 29, 2011 Send Subscribe/unsubscribe to KEPS at http://www.amsat.org/mailman/listinfo/keps BID: ORB11363.M TO ALL RADIO AMATEURS BT
Satellite: HUBBLE Catalog number: 20580 Epoch time: 11362.92458795 Element set: 914 Inclination: 028.4692 deg RA of node: 183.8965 deg Eccentricity: 0.0003326 Arg of perigee: 036.2633 deg Mean anomaly: 323.8125 deg Mean motion: 15.02039929 rev/day Decay rate: 1.653e-05 rev/day^2 Epoch rev: 98895 Checksum: 325
Satellite: ISS Catalog number: 25544 Epoch time: 11363.93815972 Element set: 721 Inclination: 051.6440 deg RA of node: 256.1914 deg Eccentricity: 0.0024042 Arg of perigee: 220.3253 deg Mean anomaly: 314.6768 deg Mean motion: 15.58736096 rev/day Decay rate: 1.5203e-04 rev/day^2 Epoch rev: 75146 Checksum: 291
Satellite: CO-58 Catalog number: 28895 Epoch time: 11362.67310690 Element set: 0060 Inclination: 097.9386 deg RA of node: 231.2480 deg Eccentricity: 0.0017478 Arg of perigee: 333.6500 deg Mean anomaly: 026.3868 deg Mean motion: 14.60416076 rev/day Decay rate: 8.88e-06 rev/day^2 Epoch rev: 32862 Checksum: 328
Satellite: FALCON Catalog number: 30776 Epoch time: 11363.91478759 Element set: 248 Inclination: 035.4331 deg RA of node: 235.8253 deg Eccentricity: 0.0003611 Arg of perigee: 327.8206 deg Mean anomaly: 032.2291 deg Mean motion: 15.06276004 rev/day Decay rate: 4.106e-05 rev/day^2 Epoch rev: 26455 Checksum: 278
Satellite: MAST Catalog number: 31126 Epoch time: 11362.94664932 Element set: 0351 Inclination: 097.8821 deg RA of node: 019.0291 deg Eccentricity: 0.0093190 Arg of perigee: 284.6787 deg Mean anomaly: 074.4098 deg Mean motion: 14.53984871 rev/day Decay rate: 6.68e-06 rev/day^2 Epoch rev: 24938 Checksum: 336
Satellite: CAPE1 Catalog number: 31130 Epoch time: 11362.49111331 Element set: 0357 Inclination: 097.8858 deg RA of node: 015.1141 deg Eccentricity: 0.0100715 Arg of perigee: 297.8710 deg Mean anomaly: 061.2354 deg Mean motion: 14.52703222 rev/day Decay rate: 9.64e-06 rev/day^2 Epoch rev: 24884 Checksum: 269
Satellite: COMPASS Catalog number: 32787 Epoch time: 11362.83375360 Element set: 0185 Inclination: 097.8255 deg RA of node: 062.8460 deg Eccentricity: 0.0014374 Arg of perigee: 260.5585 deg Mean anomaly: 099.3970 deg Mean motion: 14.83320523 rev/day Decay rate: 2.332e-05 rev/day^2 Epoch rev: 19840 Checksum: 309
Satellite: AAUSAT2 Catalog number: 32788 Epoch time: 11363.64655216 Element set: 173 Inclination: 097.8262 deg RA of node: 063.9377 deg Eccentricity: 0.0013864 Arg of perigee: 257.5345 deg Mean anomaly: 102.4318 deg Mean motion: 14.83584149 rev/day Decay rate: 2.077e-05 rev/day^2 Epoch rev: 19854 Checksum: 329
Satellite: DO-64 Catalog number: 32789 Epoch time: 11362.75986473 Element set: 188 Inclination: 097.8359 deg RA of node: 064.5152 deg Eccentricity: 0.0014173 Arg of perigee: 258.8164 deg Mean anomaly: 101.1433 deg Mean motion: 14.84609180 rev/day Decay rate: 4.403e-05 rev/day^2 Epoch rev: 19843 Checksum: 331
Satellite: CO-66 Catalog number: 32791 Epoch time: 11362.83050034 Element set: 0180 Inclination: 097.8263 deg RA of node: 062.7032 deg Eccentricity: 0.0014685 Arg of perigee: 260.1391 deg Mean anomaly: 099.8154 deg Mean motion: 14.82858782 rev/day Decay rate: 1.976e-05 rev/day^2 Epoch rev: 19834 Checksum: 326
Satellite: RS-30 Catalog number: 32953 Epoch time: 11363.17167084 Element set: 385 Inclination: 082.5013 deg RA of node: 041.4883 deg Eccentricity: 0.0018036 Arg of perigee: 324.8864 deg Mean anomaly: 035.1026 deg Mean motion: 12.43019037 rev/day Decay rate: 1.0e-07 rev/day^2 Epoch rev: 16331 Checksum: 262
Satellite: TACSAT-3 Catalog number: 35001 Epoch time: 11362.64977773 Element set: 811 Inclination: 040.4534 deg RA of node: 062.0143 deg Eccentricity: 0.0006011 Arg of perigee: 182.0488 deg Mean anomaly: 178.0313 deg Mean motion: 15.65891704 rev/day Decay rate: 7.1291e-04 rev/day^2 Epoch rev: 14735 Checksum: 277
Satellite: PHARMSAT Catalog number: 35002 Epoch time: 11362.57561977 Element set: 0750 Inclination: 040.4698 deg RA of node: 063.6051 deg Eccentricity: 0.0011099 Arg of perigee: 231.9433 deg Mean anomaly: 128.0388 deg Mean motion: 15.60762182 rev/day Decay rate: 4.3547e-04 rev/day^2 Epoch rev: 14733 Checksum: 295
Satellite: HAWKSAT1 Catalog number: 35003 Epoch time: 11276.79285837 Element set: 811 Inclination: 040.4398 deg RA of node: 174.3672 deg Eccentricity: 0.0011414 Arg of perigee: 274.3918 deg Mean anomaly: 085.3844 deg Mean motion: 16.13812532 rev/day Decay rate: 2.274821e-02 rev/day^2 Epoch rev: 13457 Checksum: 306
Satellite: CP6 Catalog number: 35004 Epoch time: 11247.64656856 Element set: 784 Inclination: 040.4403 deg RA of node: 342.9642 deg Eccentricity: 0.0002956 Arg of perigee: 038.0069 deg Mean anomaly: 322.2231 deg Mean motion: 16.41039951 rev/day Decay rate: 1.6152067e-01 rev/day^2 Epoch rev: 13013 Checksum: 285
Satellite: METEOR-M Catalog number: 35865 Epoch time: 11363.71242240 Element set: 22 Inclination: 098.6806 deg RA of node: 056.0338 deg Eccentricity: 0.0002149 Arg of perigee: 169.3497 deg Mean anomaly: 190.7722 deg Mean motion: 14.21852381 rev/day Decay rate: 3.0e-08 rev/day^2 Epoch rev: 11837 Checksum: 282
Satellite: RS-38 Catalog number: 35869 Epoch time: 11363.75780393 Element set: 12 Inclination: 098.6774 deg RA of node: 056.0983 deg Eccentricity: 0.0004465 Arg of perigee: 175.5682 deg Mean anomaly: 184.5534 deg Mean motion: 14.22047181 rev/day Decay rate: 7.7e-07 rev/day^2 Epoch rev: 11839 Checksum: 333
